Climatologie pour Saint-Brevin les Pins
Jour • Résumé pour mai 10, 2017 Système :  Métrique    Anglais   Mixte
« - 1 jour
+ 1 jour »
Jour Semaine Mois Année Personnalisé
  Maximum : Minimum : Moyenne :
Température sous abri : 20.4 °C 8.0 °C 13.5 °C
Point de rosée : 13.6 °C 5.3 °C 9.3 °C
Humidité : 95 % 55 % 76 %
Vitesse du vent : 29.0 km/h 0.0 km/h 8.3 km/h
Rafale : 35.4 km/h - -
Direction :- - ESE
Pression : 1009.4 hPa 998.2 hPa -
Précipitations : 0.0 mm    
Historical Graphs
 
 
Tableau de données pour mai 10, 2017
Heure Tempé Pt rosée Pression Vent Vitesse Rafale Humidité Taux pluie (/hr) Soleil
00:00 9.9 °C 6.3 °C 1009.4 hPa East 1.6 km/h 8.0 km/h 78 % 0.0 mm 0 W/m2
00:10 9.9 °C 6.5 °C 1009.4 hPa ENE 3.2 km/h 11.3 km/h 79 % 0.0 mm 0 W/m2
00:15 10.0 °C 6.5 °C 1009.4 hPa NE 4.8 km/h 11.3 km/h 79 % 0.0 mm 0 W/m2
00:20 10.1 °C 6.4 °C 1009.4 hPa ENE 1.6 km/h 14.5 km/h 78 % 0.0 mm 0 W/m2
00:25 10.1 °C 6.4 °C 1009.4 hPa ENE 4.8 km/h 14.5 km/h 78 % 0.0 mm 0 W/m2
00:30 10.1 °C 6.4 °C 1009.0 hPa ENE 16.1 km/h 16.1 km/h 78 % 0.0 mm 0 W/m2
00:35 10.2 °C 6.6 °C 1009.0 hPa NE 6.4 km/h 16.1 km/h 78 % 0.0 mm 0 W/m2
00:40 10.5 °C 6.4 °C 1009.0 hPa ESE 11.3 km/h 16.1 km/h 76 % 0.0 mm 0 W/m2
00:45 10.7 °C 6.6 °C 1009.0 hPa ENE 3.2 km/h 14.5 km/h 76 % 0.0 mm 0 W/m2
00:50 10.6 °C 6.6 °C 1008.7 hPa East 8.0 km/h 14.5 km/h 76 % 0.0 mm 0 W/m2
00:55 10.6 °C 6.5 °C 1008.7 hPa East 8.0 km/h 12.9 km/h 76 % 0.0 mm 0 W/m2
01:00 10.7 °C 6.6 °C 1008.7 hPa ENE 4.8 km/h 14.5 km/h 76 % 0.0 mm 0 W/m2
01:10 10.7 °C 6.6 °C 1008.7 hPa East 4.8 km/h 16.1 km/h 76 % 0.0 mm 0 W/m2
01:15 10.6 °C 6.6 °C 1008.7 hPa East 1.6 km/h 11.3 km/h 76 % 0.0 mm 0 W/m2
01:20 10.4 °C 6.4 °C 1008.7 hPa ENE 4.8 km/h 12.9 km/h 76 % 0.0 mm 0 W/m2
01:25 10.3 °C 6.5 °C 1008.7 hPa East 3.2 km/h 12.9 km/h 77 % 0.0 mm 0 W/m2
01:30 10.2 °C 6.4 °C 1008.4 hPa ENE 6.4 km/h 12.9 km/h 77 % 0.0 mm 0 W/m2
01:35 10.1 °C 6.4 °C 1008.4 hPa ENE 1.6 km/h 12.9 km/h 78 % 0.0 mm 0 W/m2
01:45 10.0 °C 6.3 °C 1008.4 hPa East 8.0 km/h 16.1 km/h 78 % 0.0 mm 0 W/m2
01:50 9.9 °C 6.3 °C 1008.4 hPa East 11.3 km/h 16.1 km/h 78 % 0.0 mm 0 W/m2
01:55 9.9 °C 6.5 °C 1008.0 hPa ENE 4.8 km/h 14.5 km/h 79 % 0.0 mm 0 W/m2
02:00 9.9 °C 6.4 °C 1008.0 hPa NE 4.8 km/h 16.1 km/h 79 % 0.0 mm 0 W/m2
02:05 9.8 °C 6.3 °C 1008.0 hPa East 9.7 km/h 16.1 km/h 79 % 0.0 mm 0 W/m2
02:10 9.8 °C 6.3 °C 1008.0 hPa ENE 12.9 km/h 12.9 km/h 79 % 0.0 mm 0 W/m2
02:15 9.6 °C 6.3 °C 1008.0 hPa NE 4.8 km/h 12.9 km/h 80 % 0.0 mm 0 W/m2
02:20 9.4 °C 6.2 °C 1008.0 hPa East 4.8 km/h 16.1 km/h 80 % 0.0 mm 0 W/m2
02:25 9.3 °C 6.2 °C 1008.0 hPa ENE 1.6 km/h 16.1 km/h 81 % 0.0 mm 0 W/m2
02:30 9.1 °C 6.0 °C 1008.0 hPa ENE 6.4 km/h 11.3 km/h 81 % 0.0 mm 0 W/m2
02:35 9.1 °C 6.1 °C 1008.0 hPa ENE 3.2 km/h 9.7 km/h 82 % 0.0 mm 0 W/m2
02:40 8.8 °C 5.9 °C 1008.0 hPa ENE 4.8 km/h 11.3 km/h 82 % 0.0 mm 0 W/m2
02:45 8.6 °C 5.9 °C 1007.7 hPa NE 1.6 km/h 11.3 km/h 83 % 0.0 mm 0 W/m2
02:50 8.6 °C 6.0 °C 1007.7 hPa ENE 4.8 km/h 9.7 km/h 84 % 0.0 mm 0 W/m2
02:55 8.4 °C 5.8 °C 1007.7 hPa NE 3.2 km/h 8.0 km/h 84 % 0.0 mm 0 W/m2
03:00 8.3 °C 5.9 °C 1007.7 hPa ENE 3.2 km/h 9.7 km/h 85 % 0.0 mm 0 W/m2
03:05 8.2 °C 5.8 °C 1007.3 hPa NE 3.2 km/h 9.7 km/h 85 % 0.0 mm 0 W/m2
03:10 8.1 °C 5.9 °C 1007.3 hPa North 3.2 km/h 11.3 km/h 86 % 0.0 mm 0 W/m2
03:15 8.1 °C 5.9 °C 1007.3 hPa NE 4.8 km/h 11.3 km/h 86 % 0.0 mm 0 W/m2
03:20 8.2 °C 6.0 °C 1007.0 hPa ENE 3.2 km/h 11.3 km/h 86 % 0.0 mm 0 W/m2
03:25 8.2 °C 5.8 °C 1007.0 hPa Calm   11.3 km/h 85 % 0.0 mm 0 W/m2
03:30 8.1 °C 5.9 °C 1007.0 hPa Calm   12.9 km/h 86 % 0.0 mm 0 W/m2
03:35 8.0 °C 5.8 °C 1007.0 hPa Calm   12.9 km/h 86 % 0.0 mm 0 W/m2
03:40 8.1 °C 5.9 °C 1006.7 hPa East 1.6 km/h 11.3 km/h 86 % 0.0 mm 0 W/m2
03:45 8.2 °C 5.8 °C 1006.7 hPa NNE 6.4 km/h 11.3 km/h 85 % 0.0 mm 0 W/m2
03:50 8.3 °C 5.9 °C 1006.7 hPa Calm   11.3 km/h 85 % 0.0 mm 0 W/m2
03:55 8.3 °C 6.0 °C 1006.7 hPa NE 6.4 km/h 11.3 km/h 85 % 0.0 mm 0 W/m2
04:00 8.4 °C 6.0 °C 1006.7 hPa Calm   11.3 km/h 85 % 0.0 mm 0 W/m2
04:05 8.3 °C 6.0 °C 1006.3 hPa Calm   11.3 km/h 85 % 0.0 mm 0 W/m2
04:10 8.1 °C 5.9 °C 1006.3 hPa Calm   11.3 km/h 86 % 0.0 mm 0 W/m2
04:15 8.2 °C 6.0 °C 1006.3 hPa NE 1.6 km/h 12.9 km/h 86 % 0.0 mm 0 W/m2
04:20 8.2 °C 6.0 °C 1006.0 hPa NE 3.2 km/h 12.9 km/h 86 % 0.0 mm 0 W/m2
04:25 8.2 °C 6.0 °C 1006.0 hPa NE 6.4 km/h 9.7 km/h 86 % 0.0 mm 0 W/m2
04:30 8.2 °C 6.0 °C 1006.0 hPa NE 1.6 km/h 11.3 km/h 86 % 0.0 mm 0 W/m2
04:35 8.2 °C 5.8 °C 1005.6 hPa ENE 16.1 km/h 17.7 km/h 85 % 0.0 mm 0 W/m2
04:40 8.3 °C 5.9 °C 1005.6 hPa NE 3.2 km/h 17.7 km/h 85 % 0.0 mm 0 W/m2
04:45 8.2 °C 5.8 °C 1005.6 hPa NE 9.7 km/h 17.7 km/h 85 % 0.0 mm 0 W/m2
04:50 8.2 °C 5.8 °C 1005.6 hPa NE 11.3 km/h 19.3 km/h 85 % 0.0 mm 0 W/m2
04:55 8.2 °C 5.8 °C 1005.3 hPa ESE 11.3 km/h 19.3 km/h 85 % 0.0 mm 0 W/m2
05:00 8.3 °C 5.7 °C 1005.3 hPa East 9.7 km/h 16.1 km/h 84 % 0.0 mm 0 W/m2
05:05 8.4 °C 5.8 °C 1005.3 hPa East 4.8 km/h 16.1 km/h 84 % 0.0 mm 0 W/m2
05:10 8.5 °C 5.8 °C 1005.0 hPa East 16.1 km/h 20.9 km/h 83 % 0.0 mm 0 W/m2
05:15 8.5 °C 5.8 °C 1005.0 hPa ENE 3.2 km/h 20.9 km/h 83 % 0.0 mm 0 W/m2
05:20 8.5 °C 5.6 °C 1005.0 hPa ENE 6.4 km/h 20.9 km/h 82 % 0.0 mm 0 W/m2
05:25 8.6 °C 5.7 °C 1005.0 hPa East 9.7 km/h 16.1 km/h 82 % 0.0 mm 0 W/m2
05:30 8.6 °C 5.7 °C 1005.0 hPa East 8.0 km/h 16.1 km/h 82 % 0.0 mm 0 W/m2
05:35 8.6 °C 5.7 °C 1005.0 hPa East 3.2 km/h 19.3 km/h 82 % 0.0 mm 0 W/m2
05:40 8.6 °C 5.7 °C 1005.0 hPa East 11.3 km/h 19.3 km/h 82 % 0.0 mm 0 W/m2
05:45 8.6 °C 5.7 °C 1005.0 hPa East 6.4 km/h 17.7 km/h 82 % 0.0 mm 0 W/m2
05:50 8.6 °C 5.5 °C 1005.0 hPa ENE 16.1 km/h 17.7 km/h 81 % 0.0 mm 0 W/m2
05:55 8.6 °C 5.5 °C 1004.6 hPa ENE 8.0 km/h 17.7 km/h 81 % 0.0 mm 0 W/m2
06:00 8.5 °C 5.6 °C 1004.6 hPa ENE 14.5 km/h 16.1 km/h 82 % 0.0 mm 0 W/m2
06:10 8.4 °C 5.5 °C 1004.3 hPa ENE 6.4 km/h 20.9 km/h 82 % 0.0 mm 0 W/m2
06:15 8.4 °C 5.5 °C 1004.3 hPa NE 11.3 km/h 17.7 km/h 82 % 0.0 mm 0 W/m2
06:20 8.3 °C 5.4 °C 1004.3 hPa ENE 3.2 km/h 17.7 km/h 82 % 0.0 mm 0 W/m2
06:25 8.3 °C 5.6 °C 1004.3 hPa East 4.8 km/h 17.7 km/h 83 % 0.0 mm 0 W/m2
06:30 8.3 °C 5.6 °C 1004.3 hPa ENE 4.8 km/h 17.7 km/h 83 % 0.0 mm 0 W/m2
06:35 8.2 °C 5.5 °C 1003.9 hPa East 8.0 km/h 17.7 km/h 83 % 0.0 mm 0 W/m2
06:40 8.1 °C 5.3 °C 1003.9 hPa ENE 8.0 km/h 17.7 km/h 83 % 0.0 mm 5 W/m2
06:45 8.1 °C 5.4 °C 1003.9 hPa East 6.4 km/h 17.7 km/h 83 % 0.0 mm 7 W/m2
06:50 8.1 °C 5.3 °C 1003.9 hPa East 11.3 km/h 17.7 km/h 83 % 0.0 mm 11 W/m2
06:55 8.1 °C 5.6 °C 1003.9 hPa East 9.7 km/h 16.1 km/h 84 % 0.0 mm 14 W/m2
07:00 8.1 °C 5.5 °C 1003.9 hPa East 11.3 km/h 16.1 km/h 84 % 0.0 mm 18 W/m2
07:05 8.2 °C 5.5 °C 1003.9 hPa SE 6.4 km/h 17.7 km/h 83 % 0.0 mm 21 W/m2
07:10 8.2 °C 5.5 °C 1003.9 hPa East 12.9 km/h 17.7 km/h 83 % 0.0 mm 25 W/m2
07:15 8.2 °C 5.5 °C 1003.9 hPa ENE 8.0 km/h 17.7 km/h 83 % 0.0 mm 26 W/m2
07:20 8.2 °C 5.5 °C 1003.9 hPa East 12.9 km/h 16.1 km/h 83 % 0.0 mm 28 W/m2
07:25 8.2 °C 5.5 °C 1003.6 hPa ENE 9.7 km/h 17.7 km/h 83 % 0.0 mm 30 W/m2
07:30 8.3 °C 5.6 °C 1003.9 hPa ENE 11.3 km/h 17.7 km/h 83 % 0.0 mm 33 W/m2
07:35 8.4 °C 5.7 °C 1003.6 hPa ESE 4.8 km/h 20.9 km/h 83 % 0.0 mm 33 W/m2
07:40 8.6 °C 5.8 °C 1003.6 hPa ENE 3.2 km/h 20.9 km/h 83 % 0.0 mm 35 W/m2
07:45 8.6 °C 5.8 °C 1003.6 hPa ENE 16.1 km/h 25.7 km/h 83 % 0.0 mm 35 W/m2
07:50 8.7 °C 5.9 °C 1003.6 hPa NE 1.6 km/h 25.7 km/h 83 % 0.0 mm 37 W/m2
07:55 8.8 °C 5.9 °C 1003.6 hPa East 3.2 km/h 17.7 km/h 82 % 0.0 mm 35 W/m2
08:00 8.9 °C 6.0 °C 1003.6 hPa NE 4.8 km/h 20.9 km/h 82 % 0.0 mm 39 W/m2
08:05 9.1 °C 6.1 °C 1003.6 hPa East 12.9 km/h 20.9 km/h 82 % 0.0 mm 40 W/m2
08:10 9.2 °C 6.3 °C 1003.6 hPa East 4.8 km/h 14.5 km/h 82 % 0.0 mm 42 W/m2
08:15 9.3 °C 6.2 °C 1003.6 hPa East 16.1 km/h 17.7 km/h 81 % 0.0 mm 44 W/m2
08:20 9.4 °C 6.3 °C 1003.6 hPa East 11.3 km/h 22.5 km/h 81 % 0.0 mm 47 W/m2
08:25 9.6 °C 6.3 °C 1003.6 hPa SE 16.1 km/h 22.5 km/h 80 % 0.0 mm 49 W/m2
08:30 9.8 °C 6.5 °C 1003.6 hPa East 4.8 km/h 24.1 km/h 80 % 0.0 mm 220 W/m2
08:35 10.0 °C 6.5 °C 1003.3 hPa East 9.7 km/h 24.1 km/h 79 % 0.0 mm 283 W/m2
08:40 10.2 °C 6.5 °C 1002.9 hPa SE 14.5 km/h 25.7 km/h 78 % 0.0 mm 301 W/m2
08:45 10.4 °C 6.7 °C 1002.9 hPa ESE 11.3 km/h 27.4 km/h 78 % 0.0 mm 316 W/m2
08:50 10.6 °C 6.7 °C 1002.9 hPa ESE 9.7 km/h 27.4 km/h 77 % 0.0 mm 329 W/m2
08:55 10.8 °C 6.7 °C 1002.9 hPa NE 6.4 km/h 25.7 km/h 76 % 0.0 mm 346 W/m2
09:00 11.1 °C 7.0 °C 1002.9 hPa East 12.9 km/h 25.7 km/h 76 % 0.0 mm 364 W/m2
09:10 11.6 °C 7.1 °C 1002.6 hPa East 8.0 km/h 29.0 km/h 74 % 0.0 mm 397 W/m2
09:15 11.8 °C 7.3 °C 1002.9 hPa ENE 22.5 km/h 29.0 km/h 74 % 0.0 mm 413 W/m2
09:20 12.0 °C 7.5 °C 1002.6 hPa SE 11.3 km/h 25.7 km/h 74 % 0.0 mm 415 W/m2
09:25 12.2 °C 7.5 °C 1002.6 hPa East 11.3 km/h 25.7 km/h 73 % 0.0 mm 434 W/m2
09:30 12.3 °C 7.6 °C 1002.6 hPa ENE 4.8 km/h 24.1 km/h 73 % 0.0 mm 450 W/m2
09:35 12.5 °C 7.6 °C 1002.6 hPa East 14.5 km/h 22.5 km/h 72 % 0.0 mm 454 W/m2
09:40 12.7 °C 7.7 °C 1002.6 hPa East 11.3 km/h 27.4 km/h 72 % 0.0 mm 476 W/m2
09:45 12.9 °C 8.0 °C 1002.6 hPa ESE 14.5 km/h 27.4 km/h 72 % 0.0 mm 489 W/m2
09:50 13.0 °C 7.9 °C 1002.6 hPa East 9.7 km/h 25.7 km/h 71 % 0.0 mm 504 W/m2
09:55 13.2 °C 7.9 °C 1002.6 hPa ESE 19.3 km/h 27.4 km/h 70 % 0.0 mm 524 W/m2
10:05 13.8 °C 8.4 °C 1002.6 hPa East 11.3 km/h 24.1 km/h 70 % 0.0 mm 538 W/m2
10:10 13.9 °C 8.3 °C 1002.6 hPa East 8.0 km/h 20.9 km/h 69 % 0.0 mm 566 W/m2
10:15 14.1 °C 8.5 °C 1002.6 hPa ESE 8.0 km/h 20.9 km/h 69 % 0.0 mm 582 W/m2
10:20 14.3 °C 8.4 °C 1002.3 hPa East 16.1 km/h 20.9 km/h 68 % 0.0 mm 601 W/m2
10:25 14.5 °C 8.7 °C 1002.3 hPa ESE 8.0 km/h 20.9 km/h 68 % 0.0 mm 594 W/m2
10:30 14.8 °C 8.5 °C 1002.3 hPa East 12.9 km/h 20.9 km/h 66 % 0.0 mm 617 W/m2
10:35 15.2 °C 9.1 °C 1002.3 hPa ENE 8.0 km/h 20.9 km/h 67 % 0.0 mm 622 W/m2
10:40 15.2 °C 8.9 °C 1002.3 hPa East 9.7 km/h 20.9 km/h 66 % 0.0 mm 635 W/m2
10:55 15.7 °C 9.1 °C 1001.9 hPa SE 14.5 km/h 22.5 km/h 65 % 0.0 mm 645 W/m2
11:00 15.6 °C 9.1 °C 1001.9 hPa ESE 8.0 km/h 22.5 km/h 65 % 0.0 mm 578 W/m2
11:05 15.7 °C 9.3 °C 1001.9 hPa ESE 12.9 km/h 27.4 km/h 66 % 0.0 mm 570 W/m2
11:10 16.0 °C 9.6 °C 1001.9 hPa ESE 3.2 km/h 27.4 km/h 66 % 0.0 mm 631 W/m2
11:15 16.2 °C 9.3 °C 1001.9 hPa East 14.5 km/h 17.7 km/h 64 % 0.0 mm 526 W/m2
11:20 16.2 °C 9.6 °C 1001.9 hPa ENE 6.4 km/h 17.7 km/h 65 % 0.0 mm 594 W/m2
11:25 16.3 °C 10.4 °C 1001.9 hPa ENE 4.8 km/h 20.9 km/h 68 % 0.0 mm 626 W/m2
11:30 16.5 °C 10.1 °C 1001.9 hPa ENE 12.9 km/h 20.9 km/h 66 % 0.0 mm 800 W/m2
11:35 16.8 °C 9.5 °C 1001.9 hPa ESE 11.3 km/h 22.5 km/h 62 % 0.0 mm 726 W/m2
11:40 16.9 °C 9.8 °C 1001.9 hPa ENE 6.4 km/h 22.5 km/h 63 % 0.0 mm 622 W/m2
11:45 16.9 °C 9.8 °C 1001.9 hPa East 12.9 km/h 22.5 km/h 63 % 0.0 mm 624 W/m2
11:50 16.9 °C 9.8 °C 1001.9 hPa East 4.8 km/h 22.5 km/h 63 % 0.0 mm 566 W/m2
11:55 17.2 °C 10.3 °C 1001.6 hPa ENE 12.9 km/h 22.5 km/h 64 % 0.0 mm 751 W/m2
12:00 17.8 °C 11.2 °C 1001.6 hPa ENE 14.5 km/h 22.5 km/h 65 % 0.0 mm 802 W/m2
12:05 18.1 °C 10.9 °C 1001.6 hPa East 3.2 km/h 20.9 km/h 63 % 0.0 mm 752 W/m2
12:10 18.1 °C 10.4 °C 1001.2 hPa ESE 4.8 km/h 20.9 km/h 61 % 0.0 mm 745 W/m2
12:15 18.3 °C 10.9 °C 1001.2 hPa ENE 12.9 km/h 22.5 km/h 62 % 0.0 mm 740 W/m2
12:20 18.6 °C 10.9 °C 1001.2 hPa East 8.0 km/h 22.5 km/h 61 % 0.0 mm 671 W/m2
12:25 18.7 °C 11.0 °C 1001.2 hPa ENE 12.9 km/h 22.5 km/h 61 % 0.0 mm 742 W/m2
12:30 18.6 °C 11.9 °C 1001.2 hPa ENE 8.0 km/h 22.5 km/h 65 % 0.0 mm 613 W/m2
12:35 18.6 °C 11.1 °C 1001.2 hPa East 16.1 km/h 22.5 km/h 62 % 0.0 mm 598 W/m2
12:40 18.3 °C 10.7 °C 1001.2 hPa East 11.3 km/h 22.5 km/h 61 % 0.0 mm 476 W/m2
12:45 18.2 °C 10.6 °C 1001.2 hPa ESE 8.0 km/h 20.9 km/h 61 % 0.0 mm 561 W/m2
12:50 18.3 °C 10.7 °C 1001.2 hPa SE 8.0 km/h 20.9 km/h 61 % 0.0 mm 640 W/m2
12:55 18.8 °C 11.1 °C 1001.2 hPa ENE 6.4 km/h 20.9 km/h 61 % 0.0 mm 680 W/m2
13:00 19.1 °C 10.9 °C 1001.2 hPa NE 12.9 km/h 19.3 km/h 59 % 0.0 mm 796 W/m2
13:05 19.3 °C 11.3 °C 1001.2 hPa East 8.0 km/h 17.7 km/h 60 % 0.0 mm 800 W/m2
13:10 19.4 °C 11.5 °C 1001.2 hPa East 9.7 km/h 20.9 km/h 60 % 0.0 mm 731 W/m2
13:15 19.4 °C 11.5 °C 1001.2 hPa ESE 3.2 km/h 20.9 km/h 60 % 0.0 mm 700 W/m2
13:20 19.7 °C 11.7 °C 1001.2 hPa East 8.0 km/h 19.3 km/h 60 % 0.0 mm 926 W/m2
13:25 19.9 °C 11.9 °C 1000.9 hPa East 12.9 km/h 17.7 km/h 60 % 0.0 mm 724 W/m2
13:30 20.0 °C 11.7 °C 1000.9 hPa ESE 12.9 km/h 17.7 km/h 59 % 0.0 mm 719 W/m2
13:35 19.8 °C 11.3 °C 1000.9 hPa East 1.6 km/h 24.1 km/h 58 % 0.0 mm 631 W/m2
13:40 19.9 °C 11.4 °C 1000.9 hPa SE 14.5 km/h 24.1 km/h 58 % 0.0 mm 830 W/m2
13:45 20.2 °C 11.4 °C 1000.9 hPa East 12.9 km/h 22.5 km/h 57 % 0.0 mm 932 W/m2
13:50 20.3 °C 11.8 °C 1000.9 hPa SE 9.7 km/h 24.1 km/h 58 % 0.0 mm 879 W/m2
13:55 20.3 °C 11.8 °C 1000.9 hPa SE 17.7 km/h 24.1 km/h 58 % 0.0 mm 886 W/m2
14:00 20.4 °C 12.1 °C 1000.9 hPa SE 16.1 km/h 20.9 km/h 59 % 0.0 mm 905 W/m2
14:05 20.3 °C 11.5 °C 1000.9 hPa SE 11.3 km/h 20.9 km/h 57 % 0.0 mm 907 W/m2
14:10 20.3 °C 11.0 °C 1000.9 hPa South 17.7 km/h 29.0 km/h 55 % 0.0 mm 700 W/m2
14:15 19.9 °C 11.4 °C 1000.9 hPa SE 6.4 km/h 29.0 km/h 58 % 0.0 mm 438 W/m2
14:20 19.7 °C 11.4 °C 1000.9 hPa SE 9.7 km/h 24.1 km/h 59 % 0.0 mm 431 W/m2
14:25 19.8 °C 11.8 °C 1000.9 hPa SSW 8.0 km/h 24.1 km/h 60 % 0.0 mm 429 W/m2
14:30 19.8 °C 11.5 °C 1000.6 hPa East 12.9 km/h 19.3 km/h 59 % 0.0 mm 304 W/m2
14:35 19.5 °C 11.5 °C 1000.6 hPa East 9.7 km/h 24.1 km/h 60 % 0.0 mm 227 W/m2
14:40 19.3 °C 11.9 °C 1000.6 hPa SSE 12.9 km/h 24.1 km/h 62 % 0.0 mm 339 W/m2
14:45 19.5 °C 11.8 °C 1000.2 hPa SSE 6.4 km/h 20.9 km/h 61 % 0.0 mm 378 W/m2
14:50 19.9 °C 12.2 °C 1000.2 hPa SSW 4.8 km/h 20.9 km/h 61 % 0.0 mm 353 W/m2
14:55 20.0 °C 12.2 °C 1000.2 hPa SSW 19.3 km/h 22.5 km/h 61 % 0.0 mm 274 W/m2
15:00 19.8 °C 12.0 °C 1000.2 hPa South 14.5 km/h 25.7 km/h 61 % 0.0 mm 230 W/m2
15:05 19.4 °C 12.0 °C 1000.6 hPa South 19.3 km/h 33.8 km/h 62 % 0.0 mm 183 W/m2
15:10 18.9 °C 11.7 °C 1000.2 hPa SSE 17.7 km/h 33.8 km/h 63 % 0.0 mm 174 W/m2
15:15 18.7 °C 12.0 °C 1000.2 hPa SE 11.3 km/h 24.1 km/h 65 % 0.0 mm 121 W/m2
15:20 18.6 °C 11.9 °C 1000.2 hPa SSW 9.7 km/h 27.4 km/h 65 % 0.0 mm 128 W/m2
15:25 18.5 °C 11.8 °C 1000.2 hPa SSE 16.1 km/h 27.4 km/h 65 % 0.0 mm 172 W/m2
15:30 18.5 °C 11.8 °C 1000.2 hPa SE 12.9 km/h 24.1 km/h 65 % 0.0 mm 223 W/m2
15:35 18.6 °C 12.1 °C 1000.2 hPa SSW 9.7 km/h 24.1 km/h 66 % 0.0 mm 185 W/m2
15:40 18.5 °C 12.3 °C 1000.2 hPa SE 8.0 km/h 20.9 km/h 67 % 0.0 mm 213 W/m2
15:45 18.5 °C 12.3 °C 1000.2 hPa SSE 4.8 km/h 19.3 km/h 67 % 0.0 mm 260 W/m2
15:50 18.8 °C 12.8 °C 1000.2 hPa SSE 8.0 km/h 17.7 km/h 68 % 0.0 mm 404 W/m2
15:55 19.1 °C 13.0 °C 1000.2 hPa SSE 16.1 km/h 27.4 km/h 68 % 0.0 mm 353 W/m2
16:00 18.5 °C 12.9 °C 1000.2 hPa South 19.3 km/h 33.8 km/h 70 % 0.0 mm 294 W/m2
16:05 18.3 °C 12.9 °C 1000.2 hPa SSW 16.1 km/h 33.8 km/h 71 % 0.0 mm 243 W/m2
16:10 18.0 °C 13.1 °C 1000.2 hPa SSW 11.3 km/h 32.2 km/h 73 % 0.0 mm 264 W/m2
16:15 17.7 °C 13.0 °C 1000.2 hPa SSW 14.5 km/h 32.2 km/h 74 % 0.0 mm 262 W/m2
16:20 17.4 °C 13.1 °C 1000.2 hPa South 14.5 km/h 32.2 km/h 76 % 0.0 mm 260 W/m2
16:25 17.3 °C 13.2 °C 1000.2 hPa South 11.3 km/h 32.2 km/h 77 % 0.0 mm 241 W/m2
16:30 17.2 °C 13.2 °C 1000.2 hPa South 19.3 km/h 33.8 km/h 77 % 0.0 mm 248 W/m2
16:35 17.0 °C 12.9 °C 1000.2 hPa South 9.7 km/h 33.8 km/h 77 % 0.0 mm 318 W/m2
16:40 17.2 °C 13.3 °C 1000.2 hPa SSE 22.5 km/h 29.0 km/h 78 % 0.0 mm 420 W/m2
16:45 17.4 °C 13.3 °C 1000.2 hPa SSE 25.7 km/h 25.7 km/h 77 % 0.0 mm 406 W/m2
16:50 17.4 °C 13.2 °C 1000.2 hPa South 19.3 km/h 27.4 km/h 76 % 0.0 mm 503 W/m2
16:55 17.8 °C 13.5 °C 1000.2 hPa South 6.4 km/h 32.2 km/h 76 % 0.0 mm 490 W/m2
17:00 17.7 °C 13.4 °C 1000.2 hPa SSW 16.1 km/h 35.4 km/h 76 % 0.0 mm 403 W/m2
17:05 18.1 °C 13.6 °C 999.9 hPa SSW 20.9 km/h 35.4 km/h 75 % 0.0 mm 352 W/m2
17:10 17.8 °C 13.3 °C 999.9 hPa South 11.3 km/h 29.0 km/h 75 % 0.0 mm 397 W/m2
17:15 17.8 °C 13.5 °C 999.9 hPa SSW 11.3 km/h 29.0 km/h 76 % 0.0 mm 642 W/m2
17:20 18.0 °C 13.5 °C 999.9 hPa South 12.9 km/h 29.0 km/h 75 % 0.0 mm 592 W/m2
17:25 18.3 °C 13.4 °C 999.9 hPa South 19.3 km/h 27.4 km/h 73 % 0.0 mm 650 W/m2
17:35 18.4 °C 12.9 °C 999.5 hPa South 17.7 km/h 29.0 km/h 70 % 0.0 mm 610 W/m2
17:40 18.4 °C 13.2 °C 999.9 hPa SSW 14.5 km/h 29.0 km/h 72 % 0.0 mm 457 W/m2
17:45 18.3 °C 12.5 °C 999.5 hPa South 12.9 km/h 32.2 km/h 69 % 0.0 mm 573 W/m2
17:50 18.2 °C 12.7 °C 999.5 hPa SSE 20.9 km/h 32.2 km/h 70 % 0.0 mm 557 W/m2
17:55 18.1 °C 12.6 °C 999.9 hPa SSE 17.7 km/h 32.2 km/h 70 % 0.0 mm 534 W/m2
18:00 18.2 °C 12.4 °C 999.5 hPa SSW 11.3 km/h 32.2 km/h 69 % 0.0 mm 520 W/m2
18:05 18.3 °C 12.3 °C 999.5 hPa South 19.3 km/h 27.4 km/h 68 % 0.0 mm 480 W/m2
18:10 18.0 °C 12.2 °C 999.9 hPa South 22.5 km/h 30.6 km/h 69 % 0.0 mm 132 W/m2
18:15 17.7 °C 12.2 °C 999.9 hPa South 16.1 km/h 30.6 km/h 70 % 0.0 mm 469 W/m2
18:20 17.8 °C 12.2 °C 999.9 hPa South 12.9 km/h 32.2 km/h 70 % 0.0 mm 459 W/m2
18:25 17.8 °C 12.1 °C 999.9 hPa SSW 19.3 km/h 32.2 km/h 69 % 0.0 mm 443 W/m2
18:30 17.8 °C 12.1 °C 999.9 hPa SSW 11.3 km/h 29.0 km/h 69 % 0.0 mm 420 W/m2
18:35 17.7 °C 11.9 °C 999.9 hPa South 22.5 km/h 29.0 km/h 69 % 0.0 mm 417 W/m2
18:40 17.6 °C 12.1 °C 999.5 hPa SE 11.3 km/h 29.0 km/h 70 % 0.0 mm 408 W/m2
18:45 17.7 °C 12.1 °C 999.9 hPa SE 12.9 km/h 29.0 km/h 70 % 0.0 mm 390 W/m2
18:50 17.6 °C 12.1 °C 999.5 hPa SSW 29.0 km/h 29.0 km/h 70 % 0.0 mm 369 W/m2
18:55 17.3 °C 11.8 °C 999.9 hPa South 12.9 km/h 30.6 km/h 70 % 0.0 mm 336 W/m2
19:00 17.3 °C 12.0 °C 999.9 hPa South 12.9 km/h 30.6 km/h 71 % 0.0 mm 339 W/m2
19:05 16.9 °C 11.8 °C 999.9 hPa SSW 11.3 km/h 25.7 km/h 72 % 0.0 mm 111 W/m2
19:10 16.6 °C 11.7 °C 999.9 hPa SSW 11.3 km/h 25.7 km/h 73 % 0.0 mm 148 W/m2
19:15 16.4 °C 11.8 °C 999.9 hPa SSE 16.1 km/h 24.1 km/h 74 % 0.0 mm 128 W/m2
19:20 16.4 °C 11.8 °C 999.9 hPa SSE 6.4 km/h 24.1 km/h 74 % 0.0 mm 134 W/m2
19:25 16.5 °C 11.4 °C 999.5 hPa SSW 6.4 km/h 22.5 km/h 72 % 0.0 mm 125 W/m2
19:30 16.4 °C 11.7 °C 999.5 hPa SSW 11.3 km/h 25.7 km/h 74 % 0.0 mm 95 W/m2
19:35 16.3 °C 12.0 °C 999.5 hPa SSW 4.8 km/h 25.7 km/h 76 % 0.0 mm 81 W/m2
19:40 16.1 °C 11.9 °C 999.5 hPa SSW 11.3 km/h 16.1 km/h 76 % 0.0 mm 76 W/m2
19:45 15.9 °C 11.9 °C 999.5 hPa SW 6.4 km/h 17.7 km/h 77 % 0.0 mm 63 W/m2
19:50 15.8 °C 11.8 °C 999.5 hPa WSW 11.3 km/h 17.7 km/h 77 % 0.0 mm 51 W/m2
19:55 15.7 °C 12.1 °C 999.5 hPa SSW 4.8 km/h 17.7 km/h 79 % 0.0 mm 42 W/m2
20:00 15.6 °C 11.9 °C 999.2 hPa South 8.0 km/h 20.9 km/h 79 % 0.0 mm 47 W/m2
20:05 15.5 °C 12.1 °C 999.2 hPa SW 6.4 km/h 20.9 km/h 80 % 0.0 mm 46 W/m2
20:10 15.4 °C 12.0 °C 999.2 hPa SSW 6.4 km/h 17.7 km/h 80 % 0.0 mm 46 W/m2
20:15 15.3 °C 11.9 °C 999.2 hPa South 8.0 km/h 14.5 km/h 80 % 0.0 mm 49 W/m2
20:20 15.3 °C 11.9 °C 999.2 hPa South 8.0 km/h 14.5 km/h 80 % 0.0 mm 49 W/m2
20:25 15.3 °C 11.9 °C 998.9 hPa SW 4.8 km/h 14.5 km/h 80 % 0.0 mm 39 W/m2
20:30 15.2 °C 11.8 °C 998.9 hPa SW 1.6 km/h 14.5 km/h 80 % 0.0 mm 25 W/m2
20:35 15.1 °C 11.9 °C 998.9 hPa Calm   12.9 km/h 81 % 0.0 mm 23 W/m2
20:40 15.0 °C 11.8 °C 998.9 hPa SSW 9.7 km/h 12.9 km/h 81 % 0.0 mm 26 W/m2
20:45 14.9 °C 11.7 °C 998.9 hPa South 1.6 km/h 12.9 km/h 81 % 0.0 mm 25 W/m2
20:50 14.8 °C 11.8 °C 998.9 hPa SSW 3.2 km/h 11.3 km/h 82 % 0.0 mm 26 W/m2
20:55 14.7 °C 11.9 °C 998.9 hPa SSW 4.8 km/h 11.3 km/h 83 % 0.0 mm 30 W/m2
21:00 14.7 °C 11.9 °C 998.9 hPa SSW 1.6 km/h 11.3 km/h 83 % 0.0 mm 28 W/m2
21:05 14.7 °C 12.0 °C 998.9 hPa Calm   8.0 km/h 84 % 0.0 mm 30 W/m2
21:10 14.6 °C 11.9 °C 998.9 hPa SW 1.6 km/h 8.0 km/h 84 % 0.0 mm 30 W/m2
21:15 14.5 °C 12.0 °C 998.9 hPa Calm   8.0 km/h 85 % 0.0 mm 28 W/m2
21:20 14.4 °C 12.0 °C 998.5 hPa WSW 3.2 km/h 8.0 km/h 85 % 0.0 mm 23 W/m2
21:25 14.3 °C 12.0 °C 998.5 hPa WSW 1.6 km/h 8.0 km/h 86 % 0.0 mm 18 W/m2
21:30 14.2 °C 11.9 °C 998.5 hPa WSW 1.6 km/h 8.0 km/h 86 % 0.0 mm 9 W/m2
21:35 13.8 °C 11.7 °C 998.5 hPa Calm   6.4 km/h 87 % 0.0 mm 5 W/m2
21:40 13.4 °C 11.5 °C 998.5 hPa Calm   1.6 km/h 88 % 0.0 mm 0 W/m2
21:45 13.1 °C 11.3 °C 998.5 hPa Calm   1.6 km/h 89 % 0.0 mm 0 W/m2
21:50 12.8 °C 11.2 °C 998.5 hPa Calm     90 % 0.0 mm 0 W/m2
21:55 12.6 °C 11.1 °C 998.5 hPa Calm     91 % 0.0 mm 0 W/m2
22:00 12.4 °C 11.0 °C 998.5 hPa Calm     91 % 0.0 mm 0 W/m2
22:05 12.3 °C 11.0 °C 998.5 hPa Calm     92 % 0.0 mm 0 W/m2
22:10 12.1 °C 10.9 °C 998.5 hPa Calm     92 % 0.0 mm 0 W/m2
22:15 11.9 °C 10.6 °C 998.5 hPa Calm     92 % 0.0 mm 0 W/m2
22:20 12.1 °C 11.0 °C 998.5 hPa Calm     93 % 0.0 mm 0 W/m2
22:25 12.0 °C 10.9 °C 998.5 hPa Calm     93 % 0.0 mm 0 W/m2
22:30 11.9 °C 10.8 °C 998.5 hPa Calm     93 % 0.0 mm 0 W/m2
22:35 11.9 °C 11.0 °C 998.5 hPa Calm     94 % 0.0 mm 0 W/m2
22:40 11.9 °C 11.0 °C 998.5 hPa Calm     94 % 0.0 mm 0 W/m2
22:45 11.8 °C 10.8 °C 998.5 hPa Calm     94 % 0.0 mm 0 W/m2
22:50 11.8 °C 10.8 °C 998.5 hPa Calm     94 % 0.0 mm 0 W/m2
22:55 11.8 °C 10.8 °C 998.5 hPa Calm     94 % 0.0 mm 0 W/m2
23:00 11.7 °C 10.7 °C 998.5 hPa Calm     94 % 0.0 mm 0 W/m2
23:05 11.7 °C 10.7 °C 998.5 hPa Calm     94 % 0.0 mm 0 W/m2
23:10 11.7 °C 10.9 °C 998.5 hPa Calm     95 % 0.0 mm 0 W/m2
23:15 11.8 °C 11.1 °C 998.5 hPa Calm     95 % 0.0 mm 0 W/m2
23:20 11.9 °C 11.1 °C 998.5 hPa Calm     95 % 0.0 mm 0 W/m2
23:25 12.0 °C 11.2 °C 998.5 hPa Calm     95 % 0.0 mm 0 W/m2
23:30 11.9 °C 11.2 °C 998.5 hPa Calm     95 % 0.0 mm 0 W/m2
23:35 12.0 °C 11.2 °C 998.2 hPa Calm   1.6 km/h 95 % 0.0 mm 0 W/m2
23:40 12.1 °C 11.3 °C 998.2 hPa Calm   1.6 km/h 95 % 0.0 mm 0 W/m2
23:45 12.3 °C 11.5 °C 998.2 hPa Calm   1.6 km/h 95 % 0.0 mm 0 W/m2
23:50 12.5 °C 11.7 °C 998.2 hPa Calm   1.6 km/h 95 % 0.0 mm 0 W/m2
23:55 12.7 °C 11.7 °C 998.2 hPa ESE 1.6 km/h 3.2 km/h 94 % 0.0 mm 0 W/m2
Avec l'autorisation de Weather Underground - 1.75 mb